| time (UTC) | temp C | wind direction | speed KPH | gust KPH | rain 1hr cm | rain 24hr cm | rain mn cm | humidity % | barometer mb |
| 20260505140108 | 21 | 110 | 3.2 | 20.9 | 0.00 | 0.03 | 0.00 | 49 | 1011.6 |
| 20260505130105 | 19 | 15 | 1.6 | 12.9 | 0.00 | 0.03 | 0.00 | 54 | 1011.8 |
| 20260505124559 | 18 | 0 | 1.6 | 11.3 | 0.00 | 0.03 | 0.00 | 55 | 1011.7 |
| 20260505123058 | 18 | 0 | 3.2 | 14.5 | 0.00 | 0.03 | 0.00 | 57 | 1011.7 |
| 20260505121600 | 17 | 35 | 0.0 | 8.0 | 0.00 | 0.03 | 0.00 | 58 | 1011.7 |
| 20260505120105 | 17 | 0 | 0.0 | 3.2 | 0.00 | 0.03 | 0.00 | 59 | 1011.5 |
| 20260505114557 | 17 | 0 | 0.0 | 1.6 | 0.00 | 0.03 | 0.00 | 58 | 1011.4 |
| 20260505113115 | 17 | 0 | 0.0 | 3.2 | 0.00 | 0.03 | 0.00 | 57 | 1011.3 |
| 20260505111555 | 17 | 296 | 0.0 | 11.3 | 0.00 | 0.03 | 0.00 | 56 | 1011.2 |
| 20260505101558 | 17 | 0 | 1.6 | 4.8 | 0.00 | 0.03 | 0.00 | 54 | 1010.9 |
| 20260505094556 | 17 | 0 | 1.6 | 6.4 | 0.00 | 0.03 | 0.00 | 55 | 1010.3 |
| 20260505093105 | 17 | 51 | 1.6 | 6.4 | 0.00 | 0.03 | 0.00 | 54 | 1010.1 |
| 20260505091558 | 17 | 161 | 1.6 | 8.0 | 0.00 | 0.03 | 0.00 | 55 | 1010.0 |
| 20260505090058 | 17 | 284 | 0.0 | 6.4 | 0.00 | 0.03 | 0.00 | 55 | 1010.0 |
| 20260505084557 | 17 | 76 | 1.6 | 8.0 | 0.00 | 0.03 | 0.00 | 55 | 1010.0 |
| 20260505083103 | 17 | 296 | 0.0 | 4.8 | 0.00 | 0.03 | 0.00 | 56 | 1009.9 |
| 20260505081558 | 17 | 0 | 0.0 | 8.0 | 0.00 | 0.03 | 0.00 | 55 | 1009.9 |
| 20260505080111 | 17 | 0 | 1.6 | 6.4 | 0.00 | 0.03 | 0.00 | 55 | 1009.8 |
| 20260505074556 | 17 | 244 | 0.0 | 11.3 | 0.00 | 0.03 | 0.00 | 55 | 1009.6 |
| 20260505073107 | 17 | 0 | 0.0 | 6.4 | 0.00 | 0.03 | 0.00 | 54 | 1009.7 |
| 20260505071559 | 17 | 198 | 0.0 | 12.9 | 0.00 | 0.03 | 0.00 | 54 | 1009.7 |
| 20260505070057 | 17 | 175 | 0.0 | 6.4 | 0.00 | 0.03 | 0.00 | 54 | 1009.6 |
| 20260505064601 | 17 | 0 | 0.0 | 4.8 | 0.00 | 0.03 | 0.00 | 54 | 1009.6 |
| 20260505063102 | 17 | 0 | 0.0 | 6.4 | 0.00 | 0.03 | 0.00 | 55 | 1009.6 |
| 20260505061601 | 17 | 0 | 1.6 | 6.4 | 0.00 | 0.03 | 0.00 | 54 | 1009.6 |
| 20260505054557 | 16 | 53 | 1.6 | 6.4 | 0.00 | 0.03 | 0.00 | 57 | 1009.6 |
| 20260505053116 | 16 | 267 | 0.0 | 4.8 | 0.00 | 0.03 | 0.00 | 59 | 1009.6 |
| 20260505051559 | 16 | 234 | 0.0 | 4.8 | 0.00 | 0.03 | 0.00 | 60 | 1009.5 |
| 20260505050113 | 16 | 0 | 0.0 | 3.2 | 0.00 | 0.03 | 0.00 | 61 | 1009.4 |
| 20260505041554 | 17 | 0 | 0.0 | 1.6 | 0.00 | 0.03 | 0.00 | 60 | 1009.0 |
| 20260505040055 | 17 | 0 | 0.0 | 1.6 | 0.00 | 0.03 | 0.00 | 60 | 1009.0 |
| 20260505034615 | 17 | 0 | 0.0 | 3.2 | 0.00 | 0.03 | 0.03 | 59 | 1008.9 |
| 20260505033057 | 17 | 0 | 0.0 | 1.6 | 0.00 | 0.03 | 0.03 | 58 | 1008.9 |
| 20260505031556 | 17 | 0 | 0.0 | 4.8 | 0.00 | 0.03 | 0.03 | 59 | 1008.8 |
| 20260505030055 | 17 | 0 | 0.0 | 3.2 | 0.00 | 0.03 | 0.03 | 60 | 1008.9 |
| 20260505024556 | 17 | 0 | 0.0 | 1.6 | 0.00 | 0.03 | 0.03 | 62 | 1008.9 |
| 20260505023101 | 17 | 0 | 0.0 | 3.2 | 0.00 | 0.03 | 0.03 | 63 | 1008.8 |
| 20260505021559 | 17 | 0 | 0.0 | 3.2 | 0.00 | 0.03 | 0.03 | 63 | 1008.6 |
| 20260505020100 | 17 | 0 | 0.0 | 3.2 | 0.00 | 0.03 | 0.03 | 63 | 1008.7 |
| 20260505014558 | 17 | 0 | 0.0 | 3.2 | 0.00 | 0.03 | 0.03 | 64 | 1008.7 |
| 20260505013101 | 18 | 0 | 0.0 | 3.2 | 0.00 | 0.03 | 0.03 | 61 | 1008.6 |
| 20260505011612 | 18 | 0 | 0.0 | 1.6 | 0.00 | 0.03 | 0.03 | 59 | 1008.7 |
| 20260505010059 | 19 | 0 | 0.0 | 1.6 | 0.00 | 0.03 | 0.03 | 57 | 1008.5 |
| 20260505004607 | 20 | 273 | 0.0 | 4.8 | 0.00 | 0.03 | 0.03 | 54 | 1008.4 |
| 20260505003057 | 21 | 0 | 0.0 | 4.8 | 0.00 | 0.03 | 0.03 | 53 | 1008.5 |
| 20260505001629 | 21 | 0 | 0.0 | 4.8 | 0.00 | 0.03 | 0.03 | 52 | 1008.6 |
| 20260505000109 | 21 | 0 | 0.0 | 3.2 | 0.00 | 0.03 | 0.03 | 52 | 1008.6 |
| 20260504234559 | 22 | 300 | 0.0 | 4.8 | 0.00 | 0.03 | 0.03 | 52 | 1008.5 |
| 20260504233111 | 22 | 0 | 0.0 | 4.8 | 0.00 | 0.03 | 0.03 | 52 | 1008.5 |
| 20260504231559 | 22 | 0 | 1.6 | 6.4 | 0.00 | 0.03 | 0.03 | 51 | 1008.3 |
| 20260504224608 | 23 | 140 | 1.6 | 11.3 | 0.00 | 0.03 | 0.03 | 46 | 1008.5 |
| 20260504223101 | 23 | 128 | 1.6 | 8.0 | 0.00 | 0.03 | 0.03 | 48 | 1008.6 |
| 20260504221601 | 23 | 144 | 0.0 | 3.2 | 0.00 | 0.03 | 0.03 | 46 | 1008.5 |
| 20260504220058 | 24 | 108 | 0.0 | 6.4 | 0.00 | 0.03 | 0.03 | 49 | 1008.5 |
| 20260504214600 | 23 | 324 | 1.6 | 8.0 | 0.00 | 0.03 | 0.03 | 47 | 1008.7 |
| 20260504213101 | 24 | 284 | 1.6 | 8.0 | 0.00 | 0.03 | 0.03 | 47 | 1008.9 |
| 20260504211554 | 23 | 304 | 3.2 | 14.5 | 0.00 | 0.03 | 0.03 | 47 | 1009.0 |
| 20260504210059 | 23 | 246 | 3.2 | 8.0 | 0.00 | 0.03 | 0.03 | 47 | 1009.2 |
| 20260504204620 | 21 | 290 | 1.6 | 11.3 | 0.00 | 0.03 | 0.03 | 49 | 1009.4 |
| 20260504203059 | 21 | 0 | 0.0 | 6.4 | 0.00 | 0.03 | 0.03 | 55 | 1009.4 |
| 20260504201601 | 21 | 249 | 3.2 | 12.9 | 0.00 | 0.03 | 0.03 | 53 | 1009.4 |
| 20260504194604 | 19 | 0 | 1.6 | 8.0 | 0.03 | 0.03 | 0.03 | 62 | 1009.7 |
| 20260504193107 | 18 | 49 | 1.6 | 6.4 | 0.03 | 0.03 | 0.03 | 67 | 1010.0 |
| 20260504191613 | 20 | 24 | 1.6 | 17.7 | 0.03 | 0.03 | 0.03 | 59 | 1009.9 |
| 20260504184559 | 22 | 246 | 4.8 | 17.7 | 0.00 | 0.00 | 0.00 | 44 | 1010.6 |
| 20260504183058 | 22 | 142 | 1.6 | 14.5 | 0.00 | 0.00 | 0.00 | 47 | 1010.4 |
| 20260504181609 | 22 | 196 | 4.8 | 14.5 | 0.00 | 0.00 | 0.00 | 46 | 1010.2 |
| 20260504180057 | 21 | 196 | 3.2 | 16.1 | 0.00 | 0.00 | 0.00 | 47 | 1010.2 |
| 20260504174559 | 22 | 134 | 3.2 | 11.3 | 0.00 | 0.00 | 0.00 | 50 | 1010.2 |
| 20260504173057 | 20 | 91 | 3.2 | 16.1 | 0.00 | 0.00 | 0.00 | 52 | 1010.6 |
| 20260504171558 | 20 | 105 | 3.2 | 12.9 | 0.00 | 0.00 | 0.00 | 50 | 1010.9 |
| 20260504170106 | 20 | 105 | 3.2 | 9.7 | 0.00 | 0.00 | 0.00 | 53 | 1011.3 |